Location: Bismarck
(46.7731°N, 100.8200°W)
Time: 13:25:37
(UTC-05:00)

Amateur Radio Satellites - All Passes

Search period start: 28 July 2014 12:55
Search period end: 29 July 2014 12:55
Location: Bismarck, 46.7731°N, 100.8200°W

Satellite Date Start Highest point End Downlink Frequencies (MHz)
Time Altitude Azimuth
JAS-1B 28 Jul 12:57:21 13:03:09 18° 41° (NE) 13:09:05 435.800 - 435.900 CW/SSB
SO-50 28 Jul 13:06:07 13:09:33 22° 113° (ESE) 13:13:03 436.795 FM
AO-27 28 Jul 13:12:20 13:14:37 13° 54° (NE) 13:16:54 436.795 MHz FM
Uribyol 2 28 Jul 13:12:46 13:15:11 13° 54° (NE) 13:17:36 436.500 FM
Oscar 19 28 Jul 13:41:42 13:46:26 40° 67° (ENE) 13:51:12 437.125 CW, 437.150 USB
HO-68 28 Jul 13:49:49 13:52:41 13° 317° (NW) 13:55:33 435.675 MHz FM
KITSAT 1 28 Jul 13:53:38 14:00:15 26° 25° (NNE) 14:06:49 435.175 FM
AO-7 28 Jul 14:01:45 14:04:24 12° 32° (NNE) 14:07:03 29.400 - 29.500 MHz
AO-Echo 28 Jul 14:03:07 14:07:48 32° 65° (ENE) 14:12:29 ?
Oscar 16 28 Jul 14:09:32 14:14:38 72° 73° (ENE) 14:19:45 437.025 USB, Beacon 2401.1428
ITAMSAT 1 28 Jul 14:29:12 14:34:14 51° 69° (ENE) 14:39:18 435.822 SSB
JAS-1B 28 Jul 14:42:41 14:51:27 56° 64° (ENE) 15:01:00 435.800 - 435.900 CW/SSB
TMSAT-1 28 Jul 14:44:27 14:48:38 24° 61° (ENE) 14:52:50 436.925 FM
SO-50 28 Jul 14:45:23 14:49:47 53° 312° (NW) 14:54:17 436.795 FM
RS-15 28 Jul 14:45:30 14:56:26 68° 119° (ESE) 15:07:12 29.354 - 29.394 USB, Beacon 29.352 USB
AO-27 28 Jul 14:48:04 14:53:16 75° 73° (ENE) 14:58:30 436.795 MHz FM
Uribyol 2 28 Jul 14:48:38 14:53:50 79° 73° (ENE) 14:59:03 436.500 FM
Gurwin Techsat 1B 28 Jul 15:07:19 15:12:23 48° 69° (ENE) 15:17:30 435.225 FM
UOSAT-12 28 Jul 15:09:50 15:13:46 28° 115° (ESE) 15:17:46 437.025 FM, 437.400 FM
Saudisat 1A 28 Jul 15:17:30 15:20:06 15° 28° (NNE) 15:22:42 436.775 MHz
Oscar 19 28 Jul 15:21:27 15:25:53 29° 265° (W) 15:30:21 437.125 CW, 437.150 USB
AO-Echo 28 Jul 15:41:29 15:46:27 40° 263° (W) 15:51:28 ?
AO-7 28 Jul 15:47:22 15:54:54 39° 56° (ENE) 16:02:26 29.400 - 29.500 MHz
KITSAT 1 28 Jul 15:49:08 15:57:14 69° 51° (NE) 16:05:15 435.175 FM
Oscar 16 28 Jul 15:51:24 15:54:32 16° 271° (W) 15:57:42 437.025 USB, Beacon 2401.1428
Uosat F 28 Jul 16:00:11 16:04:23 27° 63° (ENE) 16:08:36 435.120 FM
ITAMSAT 1 28 Jul 16:09:53 16:14:01 24° 267° (W) 16:18:11 435.822 SSB
TMSAT-1 28 Jul 16:23:02 16:28:13 55° 260° (W) 16:33:26 436.925 FM
SO-50 28 Jul 16:28:52 16:31:24 14° 335° (NNW) 16:33:57 436.795 FM
AO-27 28 Jul 16:30:13 16:33:22 16° 271° (W) 16:36:32 436.795 MHz FM
Uribyol 2 28 Jul 16:30:59 16:33:56 15° 271° (W) 16:36:53 436.500 FM
JAS-1B 28 Jul 16:33:34 16:42:04 46° 266° (W) 16:51:27 435.800 - 435.900 CW/SSB
OPAL 28 Jul 16:47:15 16:50:31 17° 93° (E) 16:53:48 ?
Gurwin Techsat 1B 28 Jul 16:48:13 16:52:36 26° 267° (W) 16:57:00 435.225 FM
UOSAT-12 28 Jul 16:49:17 16:53:44 45° 315° (NW) 16:58:17 437.025 FM, 437.400 FM
Saudisat 1A 28 Jul 16:56:10 17:00:35 62° 50° (NE) 17:04:56 436.775 MHz
RS-15 28 Jul 16:58:52 17:09:24 48° 325° (NW) 17:19:55 29.354 - 29.394 USB, Beacon 29.352 USB
JAS-2 28 Jul 17:12:02 17:17:10 20° 54° (NE) 17:22:02 435.800 - 435.900 CW/SSB, 435.910 FM
Uosat F 28 Jul 17:38:09 17:42:58 44° 261° (W) 17:47:49 435.120 FM
AO-7 28 Jul 17:39:11 17:47:23 58° 257° (WSW) 17:55:39 29.400 - 29.500 MHz
KITSAT 1 28 Jul 17:45:11 17:52:05 32° 252° (WSW) 17:58:57 435.175 FM
OPAL 28 Jul 18:24:51 18:29:53 70° 290° (WNW) 18:34:58 ?
UOSAT-12 28 Jul 18:32:40 18:35:05 14° 337° (NNW) 18:37:30 437.025 FM, 437.400 FM
Saudisat 1A 28 Jul 18:36:43 18:39:43 18° 248° (WSW) 18:42:43 436.775 MHz
Hamsat 28 Jul 18:42:48 18:46:57 72° 75° (ENE) 18:51:10 145.90 MHz
JAS-2 28 Jul 18:53:29 19:01:16 78° 73° (ENE) 19:08:30 435.800 - 435.900 CW/SSB, 435.910 FM
STRAND 1 28 Jul 19:10:30 19:12:36 12° 87° (E) 19:14:41 ?
RS-15 28 Jul 19:15:51 19:25:09 30° 358° (N) 19:34:33 29.354 - 29.394 USB, Beacon 29.352 USB
SO-67 28 Jul 19:27:07 19:30:13 31° 70° (ENE) 19:33:21 435.3500 MHz FM
AO-7 28 Jul 19:39:50 19:42:01 11° 278° (W) 19:44:12 29.400 - 29.500 MHz
SO-50 28 Jul 19:54:11 19:56:45 14° 25° (NNE) 19:59:20 436.795 FM
OPAL 28 Jul 20:06:00 20:07:54 12° 309° (NW) 20:09:49 ?
Hamsat 28 Jul 20:22:00 20:23:27 12° 272° (W) 20:24:55 145.90 MHz
JAS-2 28 Jul 20:40:46 20:46:50 25° 270° (W) 20:52:40 435.800 - 435.900 CW/SSB, 435.910 FM
HO-68 28 Jul 20:43:50 20:50:18 38° 60° (ENE) 20:56:47 435.675 MHz FM
STRAND 1 28 Jul 20:47:23 20:52:32 90° 105° (ESE) 20:57:38 ?
UKube-1 28 Jul 20:57:17 21:00:25 20° 62° (ENE) 21:03:34 145.840 MHz, 145.915 MHz
SO-67 28 Jul 21:00:57 21:03:23 18° 268° (W) 21:05:50 435.3500 MHz FM
RS-15 28 Jul 21:30:46 21:41:08 44° 32° (NNE) 21:51:43 29.354 - 29.394 USB, Beacon 29.352 USB
SO-50 28 Jul 21:33:48 21:38:25 50° 47° (NE) 21:43:05 436.795 FM
MaSat-1 28 Jul 21:42:11 21:45:28 23° 104° (ESE) 21:49:08 437.345 MHz
Oscar 11 28 Jul 21:42:13 21:45:48 26° 66° (ENE) 21:49:24 145.825 FM, Beacon 2401.500 USB
UOSAT-12 28 Jul 21:56:44 21:59:37 16° 27° (NNE) 22:02:29 437.025 FM, 437.400 FM
FUNcube-1 28 Jul 22:03:47 22:06:37 18° 63° (ENE) 22:09:26 145.950 - 145.970 MHz USB
STRAND 1 28 Jul 22:28:11 22:31:00 15° 304° (NW) 22:33:49 ?
HO-68 28 Jul 22:30:55 22:37:51 50° 260° (W) 22:44:48 435.675 MHz FM
UKube-1 28 Jul 22:32:03 22:36:18 50° 260° (W) 22:40:35 145.840 MHz, 145.915 MHz
SO-50 28 Jul 23:14:48 23:18:46 27° 245° (WSW) 23:22:46 436.795 FM
Oscar 11 28 Jul 23:17:57 23:21:52 34° 263° (W) 23:25:49 145.825 FM, Beacon 2401.500 USB
MaSat-1 28 Jul 23:18:18 23:22:25 46° 306° (NW) 23:27:09 437.345 MHz
UOSAT-12 28 Jul 23:36:04 23:40:46 58° 48° (NE) 23:45:24 437.025 FM, 437.400 FM
FUNcube-1 28 Jul 23:38:27 23:42:41 53° 260° (W) 23:46:51 145.950 - 145.970 MHz USB
RS-15 28 Jul 23:43:29 23:54:28 77° 239° (WSW) 00:05:51 29.354 - 29.394 USB, Beacon 29.352 USB
PCSat 29 Jul 00:22:08 00:22:59 10° 101° (E) 00:23:49 145.825 MHz
MaSat-1 29 Jul 00:59:37 01:01:09 11° 329° (NNW) 01:02:44 437.345 MHz
ISS 29 Jul 01:03:59 01:07:12 46° 146° (SE) 01:10:27 145.800 FM
UOSAT-12 29 Jul 01:16:56 01:20:34 22° 247° (WSW) 01:24:09 437.025 FM, 437.400 FM
Sapphire 29 Jul 01:27:12 01:32:05 36° 112° (ESE) 01:37:00 437.095 MHz 1200 baud AX-25 AFSK
Oscar 19 29 Jul 01:52:54 01:54:05 11° 86° (E) 01:55:16 437.125 CW, 437.150 USB
RS-15 29 Jul 01:57:41 02:04:58 21° 261° (W) 02:12:25 29.354 - 29.394 USB, Beacon 29.352 USB
PCSat 29 Jul 02:00:00 02:05:22 70° 119° (ESE) 02:10:47 145.825 MHz
Oscar 16 29 Jul 02:19:07 02:22:55 20° 91° (E) 02:26:43 437.025 USB, Beacon 2401.1428
JAS-1B 29 Jul 02:28:29 02:33:07 15° 77° (ENE) 02:37:27 435.800 - 435.900 CW/SSB
Oscar 10/S400 29 Jul 02:38:57 03:19:39 55° 189° (S) 11:22:15 145.825 - 145.975 CW/USB, Beacon 145.810 USB
ISS 29 Jul 02:40:42 02:43:57 46° 345° (NNW) 02:47:13 145.800 FM
ITAMSAT 1 29 Jul 02:40:43 02:43:27 14° 88° (E) 02:46:09 435.822 SSB
AO-27 29 Jul 02:59:01 03:02:57 21° 92° (E) 03:06:51 436.795 MHz FM
Uribyol 2 29 Jul 02:59:13 03:03:13 22° 92° (E) 03:07:11 436.500 FM
Sapphire 29 Jul 03:10:20 03:15:27 42° 312° (NW) 03:20:37 437.095 MHz 1200 baud AX-25 AFSK
Gurwin Techsat 1B 29 Jul 03:21:54 03:24:55 15° 88° (E) 03:27:54 435.225 FM
Oscar 19 29 Jul 03:29:04 03:34:16 79° 104° (ESE) 03:39:27 437.125 CW, 437.150 USB
PCSat 29 Jul 03:44:48 03:49:18 26° 320° (NW) 03:53:49 145.825 MHz
AO-Echo 29 Jul 03:45:43 03:50:46 56° 100° (E) 03:55:36 ?
Oscar 16 29 Jul 03:57:35 04:02:40 58° 289° (WNW) 04:07:44 437.025 USB, Beacon 2401.1428
OPAL 29 Jul 04:04:30 04:09:07 42° 65° (ENE) 04:13:47 ?
JAS-1B 29 Jul 04:16:17 04:25:47 65° 100° (E) 04:33:55 435.800 - 435.900 CW/SSB
ISS 29 Jul 04:18:00 04:21:08 35° 5° (N) 04:24:16 145.800 FM
ITAMSAT 1 29 Jul 04:18:24 04:23:36 82° 286° (WNW) 04:28:46 435.822 SSB
TMSAT-1 29 Jul 04:35:50 04:40:58 48° 99° (E) 04:46:04 436.925 FM
AO-27 29 Jul 04:37:44 04:42:49 56° 290° (WNW) 04:47:52 436.795 MHz FM
Uribyol 2 29 Jul 04:37:59 04:43:01 53° 290° (WNW) 04:48:01 436.500 FM
Sapphire 29 Jul 04:57:53 05:00:23 13° 336° (NNW) 05:02:54 437.095 MHz 1200 baud AX-25 AFSK
Gurwin Techsat 1B 29 Jul 05:00:11 05:05:32 80° 286° (WNW) 05:10:50 435.225 FM
Oscar 19 29 Jul 05:09:44 05:13:00 17° 302° (WNW) 05:16:17 437.125 CW, 437.150 USB
AO-Echo 29 Jul 05:25:16 05:29:07 22° 299° (WNW) 05:32:53 ?
AO-7 29 Jul 05:37:24 05:45:14 42° 99° (E) 05:52:58 29.400 - 29.500 MHz
Uosat F 29 Jul 05:42:44 05:47:34 45° 99° (E) 05:52:21 435.120 FM
OPAL 29 Jul 05:43:59 05:48:10 27° 263° (W) 05:52:22 ?
ISS 29 Jul 05:54:47 05:58:10 79° 25° (NNE) 06:01:32 145.800 FM
MaSat-1 29 Jul 05:56:51 06:00:49 21° 42° (NE) 06:04:45 437.345 MHz
ITAMSAT 1 29 Jul 05:59:44 06:02:18 14° 305° (NW) 06:04:52 435.822 SSB
JAS-1B 29 Jul 06:07:10 06:15:43 39° 303° (WNW) 06:23:20 435.800 - 435.900 CW/SSB
TMSAT-1 29 Jul 06:16:16 06:20:38 27° 298° (WNW) 06:25:00 436.925 FM
KITSAT 1 29 Jul 06:21:37 06:28:21 30° 107° (ESE) 06:35:05 435.175 FM
Hamsat 29 Jul 06:28:01 06:29:12 11° 87° (E) 06:30:22 145.90 MHz
STRAND 1 29 Jul 06:28:18 06:32:31 26° 62° (ENE) 06:36:45 ?
Gurwin Techsat 1B 29 Jul 06:42:01 06:44:40 14° 305° (NW) 06:47:19 435.225 FM
Uosat F 29 Jul 07:21:59 07:26:08 27° 297° (WNW) 07:30:15 435.120 FM
AO-7 29 Jul 07:30:12 07:38:10 52° 299° (WNW) 07:46:05 29.400 - 29.500 MHz
ISS 29 Jul 07:32:02 07:34:35 20° 222° (SW) 07:37:06 145.800 FM
MaSat-1 29 Jul 07:33:31 07:38:53 86° 242° (WSW) 07:44:00 437.345 MHz
JAS-2 29 Jul 07:46:19 07:52:13 51° 98° (E) 07:57:30 435.800 - 435.900 CW/SSB, 435.910 FM
JAS-1B 29 Jul 07:59:59 08:03:23 13° 327° (NNW) 08:06:42 435.800 - 435.900 CW/SSB
Hamsat 29 Jul 08:01:25 08:05:44 81° 285° (WNW) 08:10:03 145.90 MHz
STRAND 1 29 Jul 08:06:30 08:11:28 48° 261° (W) 08:16:27 ?
KITSAT 1 29 Jul 08:15:01 08:23:06 73° 308° (NW) 08:31:15 435.175 FM
SO-67 29 Jul 08:21:10 08:24:08 25° 95° (E) 08:27:04 435.3500 MHz FM
Sapphire 29 Jul 08:29:17 08:32:31 16° 29° (NNE) 08:35:45 437.095 MHz 1200 baud AX-25 AFSK
Saudisat 1A 29 Jul 08:44:24 08:48:44 58° 122° (ESE) 08:53:06 436.775 MHz
PCSat 29 Jul 09:02:17 09:06:36 23° 38° (NE) 09:10:54 145.825 MHz
MaSat-1 29 Jul 09:12:50 09:15:24 14° 261° (W) 09:17:54 437.345 MHz
AO-7 29 Jul 09:24:47 09:29:06 15° 322° (NW) 09:33:24 29.400 - 29.500 MHz
JAS-2 29 Jul 09:31:54 09:36:59 28° 301° (WNW) 09:41:37 435.800 - 435.900 CW/SSB, 435.910 FM
Hamsat 29 Jul 09:40:21 09:40:58 10° 303° (WNW) 09:41:35 145.90 MHz
SO-67 29 Jul 09:54:21 09:57:07 22° 292° (WNW) 09:59:52 435.3500 MHz FM
HO-68 29 Jul 09:55:34 10:01:34 28° 93° (E) 10:07:32 435.675 MHz FM
Sapphire 29 Jul 10:11:48 10:17:10 56° 52° (NE) 10:22:30 437.095 MHz 1200 baud AX-25 AFSK
KITSAT 1 29 Jul 10:13:17 10:19:59 27° 333° (NNW) 10:26:42 435.175 FM
UKube-1 29 Jul 10:18:00 10:21:24 22° 94° (E) 10:24:46 145.840 MHz, 145.915 MHz
Saudisat 1A 29 Jul 10:24:58 10:28:39 25° 322° (NW) 10:32:21 436.775 MHz
PCSat 29 Jul 10:45:13 10:50:40 81° 239° (WSW) 10:56:05 145.825 MHz
Oscar 11 29 Jul 11:02:23 11:06:21 34° 97° (E) 11:10:18 145.825 FM, Beacon 2401.500 USB
FUNcube-1 29 Jul 11:25:07 11:28:25 22° 94° (E) 11:31:44 145.950 - 145.970 MHz USB
HO-68 29 Jul 11:42:42 11:49:46 64° 293° (WNW) 11:56:47 435.675 MHz FM
UKube-1 29 Jul 11:53:40 11:57:46 41° 291° (WNW) 12:01:51 145.840 MHz, 145.915 MHz
Sapphire 29 Jul 11:55:50 12:00:15 26° 251° (WSW) 12:04:38 437.095 MHz 1200 baud AX-25 AFSK
RS-15 29 Jul 12:09:51 12:11:05 10° 92° (E) 12:12:20 29.354 - 29.394 USB, Beacon 29.352 USB
KITSAT 1 29 Jul 12:13:03 12:18:35 19° 3° (N) 12:24:05 435.175 FM
PCSat 29 Jul 12:30:53 12:33:12 13° 258° (WSW) 12:35:30 145.825 MHz
Oscar 11 29 Jul 12:38:48 12:42:26 26° 294° (WNW) 12:46:03 145.825 FM, Beacon 2401.500 USB
